View from above orbital plane
|
View from above satellite
|
Ground track
|
The orbit data is extracted from the following two-line orbital elements,
1 27665U 03005C 21018.41092398 .00000045 00000-0 51422-4 0 9999
2 27665 39.5756 273.2260 0008818 162.4408 6.0223 14.28542637938381
Epoch (UTC): | 18 January 2021 09:51:43 |
Eccentricity: | 0.0008818 |
inclination: | 39.5756° |
perigee height: | 790 km |
apogee height: | 803 km |
right ascension of ascending node: | 273.2260° |
argument of perigee: | 162.4408° |
revolutions per day: | 14.28542637 |
mean anomaly at epoch: | 6.0223° |
orbit number at epoch: | 93838 |
The dashed part of the orbit path shows where the satellite is in the earth's shadow,
|
|